Location: Bartshausen
(51.8454°N, 9.8167°E)
Time: 23:21:18
(UTC+00:00)

SL-24 R/B - RUBIN 2 - Pass Details

Date: 08 November 2025
Orbit: 599 x 988 km, 64.6° (Epoch: 04 December)

Event Time Altitude Azimuth Distance (km) Brightness Sun altitude
Exits shadow 04:39:22 28° 263° (W) 1,383 4.8 -16.8°
Maximum altitude 04:41:45 48° 322° (NW) 948 4.2 -16.5°
Drops below altitude 10° 04:46:24 10° 37° (NE) 2,116 6.7 -15.8°
Sets 04:48:42 0° 43° (NE) 2,985 7.6 -15.4°
